QPF
0.03 0.02 0.04 0.03 0.03 0.02 0.02 0.02 0.01 0.02 0.03 0.03 0.03 0.02 0.02 0.03 0.03 0.02 0.02 0.03 0.03 0.04 0.05 0.06 0.06 0.04 0.03 0.03 0.02 0.03 0.04 0.05 0.06 0.06 0.05 0.05 0.05 0.05 0.04 0.04 0.03 0.03 0.03
0.03 0.04 0.05 0.05 0.05 0.06 0.04 0.02 0.02 0.02 0.02 0.03 0.03 0.02 0.02 0.02 0.02 0.01 0.01 0.02 0.05 0.05 0.05 0.06 0.07 0.07 0.06 0.06 0.05 0.05 0.05 0.05 0.06 0.05 0.06 0.07 0.07 0.06 0.06 0.06 0.05 0.05 0.05
0.04 0.05 0.05 0.04 0.05 0.07 0.07 0.05 0.03 0.02 0.03 0.03 0.03 0.02 0.02 0.02 0.01 0.01 0.01 0.02 0.04 0.06 0.06 0.07 0.08 0.09 0.10 0.10 0.09 0.08 0.07 0.06 0.05 0.05 0.04 0.05 0.06 0.07 0.06 0.06 0.06 0.06 0.07
0.04 0.05 0.06 0.06 0.06 0.04 0.05 0.06 0.04 0.04 0.04 0.04 0.03 0.03 0.03 0.02 0.01 0.01 0.02 0.04 0.04 0.04 0.05 0.07 0.09 0.09 0.11 0.10 0.12 0.13 0.13 0.14 0.12 0.09 0.10 0.10 0.07 0.05 0.05 0.05 0.05 0.05 0.05
0.06 0.05 0.05 0.05 0.04 0.03 0.04 0.03 0.03 0.04 0.03 0.03 0.03 0.05 0.05 0.04 0.03 0.03 0.04 0.06 0.07 0.08 0.08 0.06 0.09 0.10 0.10 0.13 0.14 0.16 0.22 0.24 0.18 0.12 0.12 0.11 0.10 0.07 0.06 0.05 0.04 0.04 0.04
0.06 0.06 0.06 0.06 0.03 0.02 0.02 0.03 0.04 0.04 0.04 0.05 0.04 0.05 0.05 0.03 0.04 0.05 0.05 0.07 0.09 0.11 0.09 0.08 0.09 0.09 0.10 0.11 0.13 0.14 0.15 0.16 0.14 0.12 0.12 0.11 0.10 0.08 0.07 0.06 0.06 0.06 0.04
0.05 0.06 0.07 0.07 0.06 0.04 0.03 0.03 0.05 0.05 0.06 0.06 0.05 0.04 0.04 0.02 0.03 0.04 0.04 0.06 0.07 0.07 0.06 0.07 0.10 0.10 0.09 0.11 0.12 0.12 0.12 0.13 0.14 0.14 0.14 0.12 0.10 0.09 0.08 0.09 0.08 0.07 0.07
0.05 0.05 0.06 0.07 0.07 0.05 0.05 0.05 0.05 0.05 0.05 0.06 0.06 0.05 0.03 0.03 0.03 0.04 0.04 0.04 0.05 0.05 0.04 0.07 0.08 0.07 0.07 0.07 0.07 0.09 0.09 0.11 0.13 0.15 0.13 0.12 0.13 0.12 0.11 0.11 0.11 0.12 0.12
0.06 0.08 0.08 0.08 0.09 0.08 0.06 0.05 0.05 0.05 0.04 0.05 0.06 0.05 0.03 0.03 0.04 0.03 0.03 0.03 0.03 0.03 0.03 0.05 0.06 0.07 0.07 0.08 0.07 0.09 0.13 0.14 0.13 0.15 0.15 0.13 0.13 0.14 0.13 0.13 0.11 0.10 0.09
0.06 0.09 0.09 0.10 0.10 0.07 0.05 0.06 0.06 0.04 0.03 0.04 0.05 0.05 0.04 0.03 0.03 0.03 0.03 0.03 0.02 0.02 0.04 0.05 0.05 0.07 0.08 0.10 0.13 0.13 0.13 0.13 0.11 0.13 0.14 0.15 0.15 0.16 0.14 0.13 0.14 0.12 0.12
0.06 0.06 0.08 0.08 0.09 0.08 0.07 0.07 0.06 0.05 0.04 0.05 0.06 0.05 0.06 0.05 0.03 0.03 0.03 0.04 0.03 0.03 0.04 0.05 0.06 0.06 0.08 0.09 0.10 0.11 0.11 0.10 0.10 0.11 0.13 0.15 0.17 0.19 0.20 0.20 0.22 0.22 0.20
0.05 0.06 0.06 0.06 0.06 0.06 0.07 0.07 0.07 0.06 0.06 0.06 0.06 0.05 0.05 0.05 0.06 0.06 0.05 0.03 0.03 0.03 0.05 0.06 0.04 0.04 0.05 0.06 0.07 0.08 0.10 0.14 0.16 0.16 0.14 0.12 0.12 0.12 0.14 0.17 0.22 0.24 0.25
0.05 0.06 0.06 0.06 0.05 0.05 0.05 0.07 0.06 0.06 0.06 0.06 0.06 0.04 0.04 0.06 0.09 0.08 0.07 0.07 0.06 0.04 0.04 0.05 0.05 0.04 0.05 0.06 0.07 0.08 0.10 0.12 0.13 0.11 0.09 0.07 0.07 0.07 0.09 0.14 0.17 0.16 0.15
0.05 0.06 0.06 0.06 0.05 0.05 0.05 0.06 0.05 0.04 0.05 0.07 0.06 0.05 0.05 0.06 0.07 0.06 0.07 0.09 0.06 0.04 0.03 0.03 0.03 0.03 0.03 0.04 0.06 0.07 0.06 0.07 0.08 0.08 0.07 0.06 0.06 0.06 0.07 0.08 0.08 0.08 0.08
0.05 0.05 0.06 0.04 0.05 0.05 0.06 0.07 0.04 0.03 0.04 0.05 0.05 0.04 0.04 0.05 0.06 0.05 0.06 0.07 0.06 0.05 0.04 0.04 0.05 0.06 0.06 0.05 0.05 0.05 0.06 0.07 0.07 0.08 0.07 0.07 0.07 0.07 0.06 0.05 0.05 0.05 0.04
0.05 0.06 0.05 0.04 0.05 0.06 0.05 0.05 0.04 0.05 0.05 0.04 0.05 0.05 0.05 0.05 0.05 0.05 0.05 0.06 0.07 0.06 0.06 0.05 0.05 0.05 0.05 0.05 0.05 0.06 0.09 0.10 0.09 0.09 0.08 0.08 0.08 0.07 0.06 0.05 0.04 0.04 0.03
0.05 0.05 0.06 0.05 0.05 0.06 0.06 0.06 0.07 0.07 0.06 0.06 0.05 0.06 0.06 0.06 0.06 0.05 0.05 0.04 0.05 0.04 0.04 0.03 0.03 0.03 0.04 0.03 0.03 0.04 0.06 0.07 0.08 0.09 0.08 0.07 0.07 0.07 0.06 0.05 0.04 0.04 0.03
0.03 0.04 0.05 0.05 0.06 0.05 0.06 0.06 0.06 0.06 0.06 0.07 0.08 0.09 0.10 0.10 0.08 0.07 0.05 0.05 0.05 0.05 0.04 0.04 0.03 0.04 0.03 0.03 0.03 0.03 0.04 0.04 0.05 0.05 0.05 0.05 0.06 0.06 0.06 0.05 0.04 0.03 0.02
0.03 0.03 0.04 0.05 0.04 0.03 0.03 0.04 0.03 0.03 0.04 0.05 0.06 0.10 0.14 0.15 0.13 0.10 0.08 0.06 0.05 0.05 0.06 0.05 0.03 0.04 0.04 0.05 0.05 0.04 0.03 0.04 0.04 0.03 0.03 0.04 0.05 0.05 0.05 0.04 0.03 0.02 0.02
0.02 0.02 0.03 0.03 0.03 0.02 0.02 0.03 0.03 0.03 0.03 0.05 0.07 0.09 0.13 0.13 0.11 0.09 0.07 0.06 0.06 0.06 0.05 0.04 0.04 0.04 0.05 0.06 0.05 0.05 0.06 0.07 0.07 0.06 0.06 0.06 0.07 0.07 0.06 0.04 0.03 0.02 0.01
0.03 0.04 0.03 0.02 0.03 0.03 0.02 0.02 0.02 0.02 0.04 0.05 0.05 0.07 0.09 0.06 0.06 0.07 0.07 0.07 0.08 0.07 0.06 0.06 0.06 0.07 0.07 0.08 0.09 0.09 0.09 0.10 0.10 0.11 0.10 0.09 0.07 0.06 0.05 0.04 0.02 0.02 0.01
0.06 0.07 0.04 0.03 0.03 0.02 0.02 0.03 0.02 0.02 0.02 0.03 0.03 0.02 0.02 0.01 0.02 0.03 0.03 0.05 0.07 0.07 0.07 0.07 0.08 0.10 0.10 0.10 0.11 0.12 0.13 0.13 0.13 0.12 0.10 0.10 0.08 0.06 0.04 0.02 0.02 0.01 0.01
0.05 0.04 0.03 0.03 0.02 0.02 0.02 0.02 0.02 0.02 0.02 0.01 0.01 0.02 0.01 0.01 0.02 0.02 0.03 0.04 0.04 0.05 0.05 0.05 0.05 0.06 0.06 0.07 0.08 0.09 0.10 0.10 0.10 0.09 0.07 0.06 0.05 0.04 0.03 0.02 0.01 0.01 0.01
0.02 0.02 0.02 0.02 0.02 0.03 0.02 0.02 0.02 0.02 0.02 0.01 0.02 0.02 0.02 0.02 0.02 0.01 0.02 0.03 0.02 0.04 0.05 0.07 0.08 0.08 0.07 0.07 0.07 0.06 0.06 0.06 0.06 0.05 0.03 0.03 0.03 0.03 0.03 0.02 0.01 0.01 0.01
0.03 0.02 0.02 0.02 0.02 0.02 0.03 0.03 0.03 0.02 0.02 0.02 0.03 0.04 0.03 0.02 0.02 0.02 0.02 0.03 0.03 0.04 0.07 0.10 0.08 0.07 0.07 0.07 0.05 0.04 0.04 0.04 0.04 0.03 0.02 0.02 0.02 0.02 0.02 0.02 0.02 0.02 0.03
0.06 0.02 0.02 0.02 0.02 0.02 0.03 0.04 0.04 0.03 0.03 0.03 0.03 0.05 0.06 0.04 0.02 0.01 0.01 0.01 0.02 0.04 0.05 0.04 0.03 0.03 0.03 0.03 0.03 0.02 0.02 0.02 0.02 0.02 0.01 0.01 0.02 0.02 0.03 0.03 0.03 0.04 0.04
MSLP
1016.53 1016.64 1016.68 1016.68 1016.63 1016.56 1016.48 1016.41 1016.35 1016.29 1016.22 1016.14 1016.05 1015.96 1015.88 1015.83 1015.83 1015.88 1016.00 1016.16 1016.36 1016.58 1016.80 1017.01 1017.22 1017.43 1017.64 1017.86 1018.07 1018.29 1018.49 1018.67 1018.82 1018.94 1019.04 1019.15 1019.27 1019.42 1019.60 1019.82 1020.05 1020.28 1020.49
1016.45 1016.57 1016.63 1016.64 1016.61 1016.56 1016.50 1016.43 1016.37 1016.31 1016.22 1016.12 1016.01 1015.88 1015.76 1015.67 1015.63 1015.64 1015.72 1015.86 1016.05 1016.26 1016.50 1016.74 1017.00 1017.25 1017.50 1017.76 1018.01 1018.24 1018.46 1018.64 1018.78 1018.90 1019.00 1019.10 1019.22 1019.37 1019.55 1019.76 1019.99 1020.23 1020.44
1016.37 1016.50 1016.58 1016.62 1016.61 1016.59 1016.55 1016.50 1016.44 1016.37 1016.27 1016.15 1016.00 1015.85 1015.69 1015.57 1015.48 1015.45 1015.48 1015.57 1015.71 1015.89 1016.11 1016.35 1016.62 1016.89 1017.18 1017.47 1017.76 1018.04 1018.29 1018.50 1018.68 1018.82 1018.95 1019.06 1019.18 1019.32 1019.50 1019.71 1019.93 1020.17 1020.39
1016.32 1016.46 1016.56 1016.62 1016.65 1016.65 1016.63 1016.59 1016.53 1016.45 1016.34 1016.19 1016.03 1015.85 1015.67 1015.51 1015.39 1015.31 1015.29 1015.32 1015.39 1015.51 1015.67 1015.87 1016.10 1016.37 1016.66 1016.98 1017.31 1017.64 1017.95 1018.23 1018.47 1018.67 1018.83 1018.98 1019.12 1019.27 1019.43 1019.63 1019.84 1020.07 1020.29
1016.32 1016.46 1016.57 1016.65 1016.70 1016.73 1016.73 1016.70 1016.63 1016.53 1016.40 1016.24 1016.06 1015.87 1015.69 1015.52 1015.38 1015.28 1015.20 1015.16 1015.15 1015.18 1015.25 1015.35 1015.51 1015.73 1016.00 1016.32 1016.69 1017.07 1017.46 1017.82 1018.15 1018.42 1018.65 1018.84 1019.00 1019.16 1019.31 1019.49 1019.68 1019.88 1020.09
1016.38 1016.50 1016.61 1016.71 1016.78 1016.82 1016.82 1016.78 1016.71 1016.59 1016.44 1016.27 1016.09 1015.91 1015.75 1015.60 1015.47 1015.35 1015.25 1015.15 1015.06 1014.98 1014.92 1014.91 1014.95 1015.08 1015.30 1015.60 1015.98 1016.41 1016.86 1017.31 1017.73 1018.09 1018.39 1018.63 1018.82 1018.97 1019.11 1019.25 1019.40 1019.56 1019.74
1016.51 1016.60 1016.70 1016.78 1016.86 1016.90 1016.90 1016.86 1016.76 1016.62 1016.46 1016.28 1016.11 1015.97 1015.84 1015.74 1015.65 1015.56 1015.45 1015.31 1015.15 1014.97 1014.79 1014.64 1014.55 1014.57 1014.70 1014.95 1015.31 1015.77 1016.27 1016.80 1017.29 1017.73 1018.09 1018.37 1018.57 1018.71 1018.82 1018.91 1019.01 1019.12 1019.24
1016.71 1016.75 1016.82 1016.89 1016.96 1017.00 1016.98 1016.92 1016.80 1016.64 1016.46 1016.29 1016.14 1016.04 1015.97 1015.94 1015.92 1015.88 1015.80 1015.66 1015.45 1015.19 1014.90 1014.63 1014.41 1014.30 1014.33 1014.51 1014.83 1015.28 1015.81 1016.38 1016.92 1017.41 1017.80 1018.10 1018.29 1018.41 1018.47 1018.51 1018.54 1018.58 1018.64
1016.98 1016.97 1017.00 1017.05 1017.10 1017.13 1017.10 1017.01 1016.87 1016.69 1016.49 1016.32 1016.20 1016.14 1016.14 1016.19 1016.25 1016.29 1016.27 1016.16 1015.95 1015.65 1015.29 1014.93 1014.61 1014.39 1014.32 1014.41 1014.68 1015.09 1015.60 1016.16 1016.71 1017.20 1017.60 1017.88 1018.05 1018.13 1018.13 1018.10 1018.06 1018.03 1018.01
1017.31 1017.26 1017.26 1017.29 1017.32 1017.33 1017.29 1017.18 1017.01 1016.80 1016.59 1016.41 1016.30 1016.27 1016.32 1016.44 1016.59 1016.72 1016.77 1016.73 1016.56 1016.27 1015.91 1015.51 1015.13 1014.85 1014.70 1014.72 1014.91 1015.25 1015.71 1016.23 1016.74 1017.20 1017.56 1017.80 1017.93 1017.95 1017.89 1017.79 1017.68 1017.57 1017.49
1017.73 1017.63 1017.60 1017.62 1017.64 1017.63 1017.58 1017.45 1017.26 1017.02 1016.78 1016.58 1016.45 1016.43 1016.51 1016.68 1016.89 1017.10 1017.24 1017.28 1017.20 1016.98 1016.67 1016.30 1015.93 1015.62 1015.44 1015.40 1015.53 1015.79 1016.18 1016.61 1017.05 1017.44 1017.73 1017.91 1017.98 1017.94 1017.82 1017.66 1017.49 1017.32 1017.18
1018.21 1018.10 1018.05 1018.04 1018.06 1018.05 1017.98 1017.84 1017.62 1017.36 1017.08 1016.84 1016.68 1016.63 1016.70 1016.88 1017.12 1017.38 1017.61 1017.75 1017.78 1017.68 1017.47 1017.19 1016.90 1016.63 1016.46 1016.40 1016.47 1016.66 1016.95 1017.29 1017.63 1017.92 1018.13 1018.24 1018.24 1018.15 1017.99 1017.79 1017.58 1017.37 1017.17
1018.76 1018.63 1018.58 1018.57 1018.58 1018.56 1018.49 1018.34 1018.11 1017.81 1017.49 1017.20 1016.98 1016.87 1016.89 1017.03 1017.27 1017.56 1017.85 1018.09 1018.24 1018.29 1018.24 1018.10 1017.93 1017.76 1017.64 1017.59 1017.64 1017.77 1017.97 1018.20 1018.44 1018.62 1018.74 1018.78 1018.73 1018.60 1018.41 1018.20 1017.97 1017.74 1017.51
1019.36 1019.23 1019.17 1019.15 1019.16 1019.15 1019.08 1018.93 1018.68 1018.36 1018.00 1017.65 1017.36 1017.17 1017.11 1017.19 1017.38 1017.67 1017.99 1018.31 1018.59 1018.79 1018.91 1018.95 1018.95 1018.91 1018.88 1018.87 1018.91 1019.00 1019.12 1019.26 1019.39 1019.48 1019.52 1019.50 1019.41 1019.27 1019.08 1018.87 1018.64 1018.42 1018.19
1020.00 1019.87 1019.80 1019.78 1019.78 1019.77 1019.71 1019.56 1019.31 1018.98 1018.59 1018.20 1017.84 1017.56 1017.41 1017.40 1017.52 1017.77 1018.10 1018.47 1018.85 1019.20 1019.49 1019.72 1019.88 1019.99 1020.07 1020.13 1020.18 1020.24 1020.30 1020.36 1020.41 1020.43 1020.41 1020.35 1020.24 1020.10 1019.93 1019.75 1019.55 1019.34 1019.13
1020.65 1020.51 1020.43 1020.40 1020.40 1020.39 1020.33 1020.19 1019.97 1019.64 1019.25 1018.82 1018.41 1018.07 1017.83 1017.72 1017.77 1017.96 1018.27 1018.67 1019.12 1019.58 1020.01 1020.40 1020.71 1020.96 1021.15 1021.27 1021.35 1021.40 1021.42 1021.43 1021.41 1021.38 1021.33 1021.26 1021.16 1021.04 1020.91 1020.76 1020.59 1020.42 1020.22
1021.29 1021.15 1021.05 1021.01 1020.99 1020.98 1020.93 1020.82 1020.62 1020.32 1019.95 1019.53 1019.10 1018.72 1018.42 1018.24 1018.21 1018.33 1018.61 1019.00 1019.47 1019.99 1020.52 1021.01 1021.45 1021.80 1022.06 1022.24 1022.35 1022.40 1022.40 1022.38 1022.33 1022.28 1022.23 1022.16 1022.09 1022.01 1021.92 1021.81 1021.68 1021.53 1021.35
1021.91 1021.76 1021.65 1021.59 1021.55 1021.53 1021.49 1021.41 1021.25 1021.01 1020.69 1020.31 1019.90 1019.51 1019.19 1018.96 1018.87 1018.93 1019.15 1019.50 1019.96 1020.49 1021.05 1021.59 1022.09 1022.49 1022.81 1023.02 1023.15 1023.20 1023.20 1023.17 1023.13 1023.09 1023.05 1023.02 1022.98 1022.95 1022.89 1022.81 1022.71 1022.58 1022.42
1022.49 1022.34 1022.22 1022.13 1022.08 1022.06 1022.03 1021.97 1021.86 1021.68 1021.43 1021.12 1020.77 1020.42 1020.10 1019.86 1019.73 1019.74 1019.89 1020.18 1020.59 1021.08 1021.61 1022.14 1022.63 1023.05 1023.37 1023.60 1023.73 1023.79 1023.80 1023.79 1023.77 1023.75 1023.76 1023.77 1023.78 1023.79 1023.77 1023.71 1023.62 1023.50 1023.34
1023.02 1022.89 1022.76 1022.66 1022.60 1022.56 1022.53 1022.50 1022.43 1022.32 1022.15 1021.93 1021.66 1021.38 1021.10 1020.87 1020.73 1020.69 1020.78 1020.99 1021.31 1021.72 1022.18 1022.65 1023.09 1023.47 1023.76 1023.98 1024.10 1024.17 1024.20 1024.22 1024.24 1024.27 1024.33 1024.39 1024.46 1024.50 1024.51 1024.47 1024.38 1024.25 1024.08
1023.50 1023.39 1023.28 1023.18 1023.10 1023.05 1023.02 1023.00 1022.97 1022.92 1022.83 1022.70 1022.52 1022.31 1022.10 1021.90 1021.76 1021.69 1021.71 1021.84 1022.06 1022.36 1022.72 1023.08 1023.44 1023.74 1023.99 1024.17 1024.29 1024.36 1024.42 1024.47 1024.54 1024.64 1024.75 1024.87 1024.98 1025.06 1025.09 1025.05 1024.96 1024.81 1024.63
1023.90 1023.84 1023.76 1023.67 1023.59 1023.52 1023.49 1023.47 1023.46 1023.45 1023.43 1023.37 1023.28 1023.15 1023.00 1022.85 1022.72 1022.62 1022.60 1022.64 1022.76 1022.95 1023.18 1023.43 1023.67 1023.90 1024.08 1024.22 1024.32 1024.41 1024.49 1024.58 1024.70 1024.86 1025.03 1025.20 1025.35 1025.46 1025.50 1025.47 1025.37 1025.21 1025.02
1024.22 1024.23 1024.19 1024.12 1024.04 1023.97 1023.92 1023.90 1023.90 1023.91 1023.92 1023.92 1023.89 1023.84 1023.75 1023.64 1023.53 1023.42 1023.35 1023.33 1023.35 1023.43 1023.54 1023.68 1023.83 1023.96 1024.08 1024.18 1024.27 1024.35 1024.46 1024.59 1024.76 1024.96 1025.17 1025.39 1025.57 1025.70 1025.75 1025.73 1025.62 1025.46 1025.26
1024.43 1024.53 1024.55 1024.52 1024.45 1024.38 1024.32 1024.27 1024.26 1024.27 1024.30 1024.34 1024.35 1024.35 1024.31 1024.24 1024.15 1024.04 1023.94 1023.86 1023.82 1023.80 1023.82 1023.86 1023.92 1023.98 1024.05 1024.11 1024.18 1024.27 1024.39 1024.55 1024.74 1024.97 1025.22 1025.45 1025.66 1025.80 1025.87 1025.85 1025.75 1025.59 1025.40
1024.54 1024.72 1024.81 1024.82 1024.79 1024.72 1024.64 1024.58 1024.55 1024.55 1024.58 1024.63 1024.67 1024.70 1024.70 1024.66 1024.58 1024.49 1024.38 1024.27 1024.17 1024.10 1024.05 1024.03 1024.03 1024.04 1024.06 1024.10 1024.15 1024.24 1024.36 1024.52 1024.72 1024.95 1025.20 1025.44 1025.65 1025.79 1025.87 1025.86 1025.78 1025.64 1025.47
1024.55 1024.81 1024.96 1025.03 1025.02 1024.97 1024.89 1024.82 1024.77 1024.76 1024.79 1024.84 1024.89 1024.94 1024.96 1024.94 1024.89 1024.80 1024.69 1024.57 1024.46 1024.36 1024.28 1024.22 1024.19 1024.17 1024.17 1024.19 1024.23 1024.30 1024.40 1024.55 1024.73 1024.94 1025.17 1025.39 1025.58 1025.73 1025.80 1025.80 1025.74 1025.63 1025.49
Thickness
5741 5741 5742 5742 5742 5742 5742 5742 5742 5743 5743 5743 5743 5742 5741 5740 5739 5738 5737 5736 5735 5733 5732 5731 5729 5728 5726 5725 5724 5723 5721 5720 5719 5718 5716 5715 5714 5713 5712 5711 5710 5709 5708
5742 5741 5741 5742 5742 5742 5742 5742 5742 5742 5742 5742 5742 5742 5741 5740 5739 5738 5737 5736 5734 5733 5732 5731 5730 5728 5727 5726 5725 5723 5722 5721 5719 5717 5716 5715 5714 5713 5712 5711 5710 5709 5708
5743 5742 5741 5742 5742 5742 5743 5742 5742 5742 5742 5742 5741 5741 5741 5740 5739 5738 5736 5735 5734 5733 5732 5731 5729 5728 5727 5726 5725 5724 5722 5721 5719 5717 5716 5714 5713 5713 5712 5711 5710 5709 5708
5744 5743 5742 5742 5742 5742 5742 5742 5742 5741 5740 5740 5739 5739 5739 5738 5738 5737 5736 5734 5733 5732 5731 5730 5729 5728 5727 5726 5725 5724 5722 5720 5719 5717 5716 5714 5713 5712 5711 5710 5709 5708 5707
5745 5744 5743 5743 5743 5742 5742 5742 5741 5740 5738 5738 5738 5737 5737 5737 5736 5736 5734 5733 5732 5731 5730 5729 5728 5727 5727 5726 5725 5724 5722 5720 5718 5717 5715 5714 5713 5712 5711 5710 5709 5708 5707
5746 5745 5744 5744 5744 5742 5741 5741 5740 5739 5738 5737 5737 5735 5735 5735 5734 5733 5733 5732 5730 5729 5728 5727 5727 5726 5725 5724 5723 5723 5721 5720 5718 5717 5715 5714 5713 5711 5710 5709 5708 5707 5706
5747 5746 5745 5744 5743 5742 5742 5741 5740 5738 5736 5736 5733 5730 5731 5733 5732 5731 5730 5729 5728 5728 5727 5726 5724 5724 5723 5722 5722 5721 5720 5719 5717 5716 5714 5713 5712 5710 5709 5707 5706 5705 5703
5749 5748 5746 5745 5744 5743 5742 5741 5739 5737 5735 5735 5731 5726 5723 5725 5728 5729 5728 5727 5726 5725 5724 5723 5722 5722 5720 5720 5719 5718 5717 5716 5715 5714 5712 5711 5710 5708 5706 5705 5704 5702 5701
5750 5749 5748 5746 5745 5743 5742 5741 5740 5737 5734 5734 5733 5729 5723 5719 5721 5723 5724 5724 5723 5722 5721 5720 5720 5719 5718 5717 5716 5716 5715 5714 5713 5711 5710 5708 5707 5705 5704 5703 5701 5700 5698
5749 5749 5748 5747 5745 5744 5742 5742 5740 5739 5736 5733 5732 5732 5730 5727 5720 5716 5718 5719 5719 5718 5717 5717 5716 5716 5715 5714 5713 5712 5711 5710 5709 5708 5707 5705 5704 5702 5701 5700 5699 5698 5696
5749 5748 5748 5747 5745 5744 5743 5742 5741 5739 5737 5734 5732 5730 5728 5726 5723 5717 5713 5713 5714 5714 5713 5712 5712 5712 5711 5711 5710 5708 5707 5706 5705 5704 5703 5701 5700 5699 5698 5697 5695 5694 5692
5749 5748 5747 5746 5745 5744 5743 5742 5741 5739 5737 5735 5733 5731 5728 5725 5721 5718 5714 5711 5709 5709 5709 5708 5708 5707 5706 5706 5705 5703 5702 5702 5700 5699 5697 5696 5695 5693 5692 5691 5690 5689 5687
5747 5747 5747 5746 5744 5743 5742 5741 5739 5737 5736 5734 5732 5730 5728 5727 5724 5720 5715 5710 5707 5705 5705 5704 5704 5703 5702 5700 5699 5698 5697 5696 5694 5692 5691 5689 5688 5686 5685 5684 5683 5681 5679
5747 5747 5746 5744 5743 5742 5741 5739 5737 5736 5734 5732 5731 5729 5727 5726 5723 5720 5716 5710 5704 5700 5699 5699 5699 5698 5697 5695 5694 5693 5691 5689 5687 5686 5684 5682 5680 5678 5677 5675 5674 5673 5671
5747 5745 5744 5742 5740 5739 5738 5736 5734 5732 5731 5730 5728 5727 5725 5724 5721 5719 5716 5713 5706 5698 5695 5694 5693 5693 5691 5689 5688 5686 5684 5682 5681 5679 5677 5675 5672 5670 5668 5667 5665 5663 5661
5744 5742 5740 5738 5736 5735 5734 5732 5730 5729 5728 5726 5725 5724 5722 5721 5718 5716 5713 5710 5707 5702 5694 5691 5688 5687 5686 5684 5681 5679 5678 5676 5674 5672 5669 5667 5665 5662 5660 5658 5656 5654 5652
5741 5739 5736 5734 5732 5731 5730 5729 5727 5726 5724 5723 5722 5720 5718 5717 5715 5712 5709 5705 5702 5699 5692 5687 5684 5682 5680 5678 5675 5673 5671 5668 5666 5664 5662 5659 5657 5654 5652 5649 5647 5645 5642
5738 5735 5733 5731 5729 5728 5726 5725 5723 5722 5721 5719 5717 5716 5714 5713 5710 5707 5704 5701 5697 5694 5690 5683 5679 5676 5674 5672 5669 5667 5664 5662 5659 5656 5654 5651 5648 5645 5643 5640 5637 5634 5631
5735 5733 5730 5728 5726 5724 5723 5721 5720 5718 5717 5715 5714 5712 5710 5708 5705 5702 5700 5697 5693 5690 5686 5681 5675 5672 5668 5666 5662 5659 5656 5653 5651 5648 5645 5642 5639 5637 5634 5631 5628 5624 5622
5733 5730 5727 5725 5723 5721 5720 5718 5716 5714 5712 5711 5709 5707 5705 5703 5700 5698 5695 5692 5688 5684 5680 5676 5671 5667 5663 5659 5656 5653 5649 5646 5643 5640 5636 5633 5630 5627 5625 5622 5619 5615 5612
5730 5727 5724 5721 5720 5718 5716 5714 5712 5710 5708 5706 5704 5702 5700 5699 5696 5694 5691 5687 5684 5679 5675 5670 5666 5662 5658 5654 5651 5647 5643 5638 5634 5631 5627 5624 5621 5619 5615 5612 5609 5606 5602
5726 5723 5720 5717 5715 5714 5712 5710 5708 5706 5703 5701 5698 5696 5695 5693 5691 5688 5685 5682 5679 5675 5670 5665 5661 5657 5653 5649 5645 5641 5637 5633 5628 5623 5620 5616 5612 5609 5606 5603 5600 5596 5593
5722 5719 5716 5713 5710 5708 5707 5705 5703 5701 5698 5695 5693 5690 5688 5686 5684 5681 5678 5675 5671 5668 5666 5662 5657 5653 5649 5645 5641 5636 5631 5627 5622 5617 5612 5608 5604 5600 5597 5595 5591 5588 5584
5717 5713 5711 5709 5707 5704 5702 5700 5698 5695 5692 5689 5687 5684 5681 5679 5677 5675 5672 5667 5664 5661 5658 5655 5652 5648 5644 5640 5635 5631 5625 5619 5613 5608 5605 5601 5597 5593 5590 5587 5583 5580 5576
5712 5708 5706 5704 5702 5699 5697 5695 5692 5689 5685 5683 5680 5678 5676 5674 5671 5668 5665 5661 5657 5653 5650 5647 5644 5640 5637 5633 5629 5624 5618 5613 5608 5603 5597 5594 5590 5586 5582 5579 5576 5573 5569
5707 5704 5701 5698 5696 5694 5692 5690 5687 5683 5679 5676 5674 5671 5669 5667 5664 5661 5658 5654 5650 5646 5643 5640 5636 5632 5629 5625 5621 5617 5613 5608 5602 5597 5592 5587 5583 5579 5576 5572 5569 5565 5562